Sanikiluaq Airport
CYSK : now visible

Airfield :











YOU CAN JOIN US ON...

 
LOGIN :

Register | Disclaimer

   EN    FR    IT 

 









Legend :    VFR   Marginal VFR   IFR   Intensive IFR   Very Intensive IFR
Visi :
Ceiling :
>= 8 km
>= 3000ft
5 to 8 km
1000 to 3000 ft
1500m to 5 km
500 to 1000 ft
800 to 1500m
200 to 500 ft
< 800m
< 200 ft
Symbols :   Thunderstorms  Fog  Heavy snow  Heavy precipitations  Wind > 20 kt






- Airport Elevation : 104 ft
- IATA code : YSK


CYSK - Sanikiluaq

EXPIRED METARs :
  • 230600Z 05019KT 15SM BKN190 01/M01 A2984 RMK CC6 LAST STFD OBS/NXT 231200Z SLP108
  • 230500Z 05016G21KT 15SM BKN210 02/M01 A2986 RMK CC6 LAST STFD OBS/NXT 231200Z SLP114
  • 230400Z 05018KT 15SM BKN180 02/M01 A2987 RMK AC6 CALL OUT SLP119

TAF N/A
CZUL FIR / North America



MET'MAP, your aeronautical weather chart ! - Copyright ORBIFLY December 2007 - Disclaimer

ORBIFLY MET'MAP TEAM :

Programming & Development : Alexandra Zaïnal
Original concept : Baudouin d'Aumeries
Technical & hardware support : Manuel Goepfert
Assistance : Marc-Olivier Méhu




SOURCES & CREDITS :

   NOAA       Earth
Advisory